Location: La Comballaz
(46.3780°N, 7.0817°E)
Time: 16:39:36
(UTC+00:00)

Cosmos 1943 - Pass Details

Date: 09 April 2020
Orbit: 832 x 851 km, 71.0° (Epoch: 24 May)

Event Time Altitude Azimuth Distance (km) Brightness Sun altitude
Rises 19:09:06 0° 223° (SW) 3,385 6.6 -10.2°
Reaches altitude 10° 19:11:37 10° 229° (SW) 2,457 6.0 -10.6°
Maximum altitude 19:17:03 47° 303° (WNW) 1,108 4.4 -11.5°
Drops below altitude 10° 19:22:32 10° 17° (NNE) 2,483 5.7 -12.3°
Sets 19:25:07 0° 24° (NNE) 3,424 6.4 -12.7°
